Preview of NWS' New Version of Forecast
This preview is not operational and should not be used for support decisions.

Regional Weather Roundup (RWR)

Issued by Eureka, CA (EKA)

                            
778 
ASUS46 KEKA 212313
RWREKA
Eureka Area Weather Roundup
National Weather Service Eureka CA
400 PM PDT THU JUN 21 2018

Note: "fair" indicates few or no clouds below 12,000 feet with no
significant weather and/or obstructions to visibility.

Southwest Oregon...
  
CITY           SKY/WX    TMP DP  RH WIND       PRES   REMARKS
MEDFORD        MOSUNNY   88  36  15 NW12G20   30.01F                  
KLAMATH FALLS  MOSUNNY   82  45  27 VRB5      30.11F                  
NORTH BEND     MOSUNNY   65  52  62 N13       30.19S                  
ROSEBURG       SUNNY     79  54  41 N10       30.09S                  
SEXTON SUMMIT  SUNNY     76  40  27 VRB3      30.17S                  
BROOKINGS      SUNNY     65  53  65 NW16      30.12F                  

Northwest California...
  
CITY           SKY/WX    TMP DP  RH WIND       PRES   REMARKS
CRESCENT CITY  SUNNY     62  54  74 NW13      30.16F                  
MCKINLEYVILLE  SUNNY     63  52  67 NW21G28   30.14R                  
EUREKA           N/A     61  32  33 NW10      30.16S                  
FORTUNA          N/A     64  52  63 NW15G23   30.15R                  
WEAVERVILLE      N/A     90  23   9 SW10      30.02F                  
TRINITY CENTER NOT AVBL                                               
UKIAH          SUNNY     93  32  11 NW12      29.94F                  

North & Central California...
  
CITY           SKY/WX    TMP DP  RH WIND       PRES   REMARKS
YREKA          SUNNY     88  24  10 E10       30.04F                  
MOUNT SHASTA   SUNNY     85  50  29 CALM      30.07F                  
REDDING        SUNNY     97  38  13 VRB6      29.88F HX  92           
RED BLUFF      SUNNY     98  44  15 E10       29.89F HX  94           
CHICO          NOT AVBL                                               
YUBA CITY      SUNNY     94  48  20 SW5       29.90F HX  90           
SACRAMENTO     SUNNY     92  46  20 VRB5      29.90F                  
SANTA ROSA     SUNNY     86  51  29 S12       29.92F                  
NAPA           SUNNY     77  56  48 S10       29.95F                  
SAN FRANCISCO  SUNNY     67  50  54 W26       29.98F                  
OAKLAND        SUNNY     68  53  58 W12       29.98F                  
SALINAS        SUNNY     67  51  56 NW16      29.99F                  
MONTEREY       SUNNY     64  52  64 W13       30.01F                  

$$